RH
78 60 48 38 37 59 44 38 38 34 30 28 26 25 23 21 20 21 31 27 30 35 34 25 20 18 24 30 31 28 23 26 20 22 16 15 17 16 10 9 7 8 8
88 75 62 50 40 50 86 47 34 32 30 29 26 24 23 22 22 21 22 32 27 26 26 26 23 18 21 28 36 29 22 30 22 20 19 15 12 11 15 14 14 9 11
99 89 73 55 51 46 55 78 45 33 30 29 27 27 24 24 23 21 21 26 34 26 25 27 23 19 24 28 32 31 24 31 20 16 12 11 10 12 10 11 11 14 12
100 99 84 66 54 56 65 59 62 42 34 32 31 30 29 27 25 24 21 21 21 22 22 25 26 22 20 23 25 39 20 22 18 14 12 13 9 16 12 12 10 10 15
100 100 90 78 66 59 56 67 59 50 40 34 34 38 37 26 30 29 25 23 23 21 19 21 26 32 28 24 21 26 29 21 22 18 14 12 11 10 19 15 11 12 10
56 89 100 92 79 69 64 59 61 61 51 46 40 37 44 43 30 28 27 27 24 24 22 22 23 25 29 27 26 29 29 27 22 21 17 14 15 32 28 26 31 25 18
20 43 56 87 94 87 76 72 70 68 66 55 55 54 50 46 46 48 36 33 32 26 25 25 24 27 30 30 32 33 36 32 26 24 22 19 12 12 29 23 32 24 26
24 19 18 22 32 60 90 88 79 71 76 87 72 64 64 64 57 52 51 50 43 34 32 28 28 28 31 33 43 45 46 32 31 28 26 19 14 10 27 28 31 38 56
45 34 23 23 23 22 30 39 56 85 78 75 79 76 85 74 72 62 58 56 52 48 41 36 36 32 36 41 50 49 45 37 36 31 28 24 15 25 40 45 74 63 76
50 47 44 37 39 35 24 23 26 27 27 55 76 79 76 76 76 83 70 65 70 57 53 46 42 38 38 39 48 52 56 49 42 33 26 24 18 16 20 57 71 85 74
57 61 57 62 59 55 48 30 24 26 30 28 28 34 32 38 58 77 96 92 84 72 66 61 50 49 41 44 44 60 70 64 49 36 25 25 16 15 14 57 80 83 80
61 74 70 70 68 64 67 70 56 35 27 25 23 20 21 23 19 35 68 83 72 64 58 56 54 52 46 46 47 50 58 57 59 42 30 26 14 16 13 56 94 92 99
85 79 80 80 78 73 76 85 90 91 78 60 47 29 24 21 16 17 19 39 59 65 67 54 50 51 46 46 52 52 53 48 50 36 36 28 16 14 18 58 97 100 86
89 94 96 93 90 98 95 95 97 89 89 89 92 71 54 50 35 32 33 25 19 17 24 30 32 52 52 52 50 53 54 48 42 36 29 26 14 14 25 55 84 87 82
53 67 74 78 86 88 94 97 93 90 85 79 80 75 75 65 55 55 55 48 45 36 25 22 23 46 40 46 50 60 50 37 29 32 32 27 15 14 18 48 88 66 89
40 39 39 42 43 46 51 66 73 65 72 78 75 66 59 67 63 59 56 58 57 49 47 39 30 28 35 43 38 50 48 35 31 36 36 28 17 15 19 44 100 70 100
52 46 43 40 38 40 44 42 41 41 38 46 64 65 56 53 58 58 46 50 51 49 47 42 39 31 32 40 46 54 46 44 35 35 34 29 18 17 19 44 94 96 100
40 37 37 38 37 35 35 41 45 52 48 51 52 46 52 42 34 39 50 47 50 48 43 39 39 35 31 37 42 54 52 47 27 32 30 28 20 16 24 48 90 100 100
32 31 31 30 27 25 27 32 32 36 44 52 56 58 64 62 61 70 55 50 43 46 48 50 38 38 40 44 46 52 67 76 59 50 49 31 18 16 22 48 90 100 99
24 24 23 23 24 24 25 23 22 27 28 31 41 50 55 62 67 67 78 98 64 56 50 50 78 62 50 48 48 68 70 79 69 64 51 36 24 16 15 44 89 100 100
28 26 26 24 22 22 22 21 20 17 16 19 24 25 39 43 51 59 61 63 71 64 76 79 46 87 100 72 74 74 86 97 92 76 63 32 26 17 16 24 75 100 100
26 24 24 23 23 23 24 25 24 22 20 16 13 17 20 26 36 40 46 55 57 59 57 94 100 69 64 87 87 90 93 90 92 96 74 43 29 20 15 17 34 91 100
21 22 22 21 22 22 20 19 19 20 21 20 19 14 13 16 20 29 35 40 47 57 60 61 95 100 93 70 52 58 70 72 98 83 65 41 28 30 26 16 21 43 100
28 28 28 29 30 28 23 20 18 16 13 14 16 16 15 12 14 17 24 31 34 41 49 54 75 100 100 97 75 59 59 75 75 68 54 41 38 39 32 21 18 29 72
34 36 33 30 25 20 16 12 11 10 10 10 11 13 12 12 11 13 16 21 27 31 36 44 51 100 98 100 100 78 60 66 71 70 44 38 47 46 30 22 19 22 31
35 32 31 24 20 17 15 13 11 10 8 8 8 9 12 14 11 11 12 16 19 26 31 33 38 47 77 91 100 90 79 77 54 47 46 42 50 38 30 22 21 21 28
Wind_Speed
40 39 38 35 34 36 38 37 36 36 35 32 32 31 29 26 25 27 34 30 31 35 37 36 34 31 31 31 31 32 30 30 31 30 31 33 32 36 41 42 46 43 44
45 46 43 42 38 35 41 42 43 41 40 38 36 34 32 31 30 30 30 35 34 33 34 35 35 35 34 32 31 30 31 30 31 33 33 33 36 38 40 43 45 51 47
48 50 49 47 45 45 42 47 47 45 44 44 43 40 36 36 35 35 35 36 39 37 36 38 38 38 33 33 32 32 33 32 34 35 35 37 39 39 42 44 43 49 51
53 54 54 53 52 52 51 47 50 50 49 48 47 44 42 40 39 39 40 38 39 40 40 40 41 40 41 37 35 35 36 36 37 37 37 37 38 41 44 45 45 43 48
57 58 57 58 57 57 57 57 52 53 54 50 50 47 46 47 45 44 44 43 43 41 44 44 44 44 44 43 40 40 42 40 39 38 39 39 42 44 43 47 44 43 44
58 60 60 62 62 62 62 62 59 58 58 58 55 52 50 50 52 51 48 48 49 47 47 49 49 49 48 47 45 44 44 44 41 39 42 41 41 38 44 42 42 40 40
60 62 62 64 65 65 65 65 64 62 63 63 62 59 56 57 54 52 52 53 51 52 53 51 52 51 51 49 46 47 46 45 45 44 43 41 40 39 39 41 38 39 35
65 64 63 64 65 66 69 69 67 68 67 68 68 65 61 61 60 57 56 55 54 56 56 55 55 54 53 50 48 46 48 47 46 45 42 39 39 38 35 37 35 31 29
70 69 68 67 66 66 67 69 70 71 71 70 71 71 68 66 64 63 59 60 61 59 59 58 56 56 54 51 50 51 48 48 47 43 40 40 38 37 31 30 27 24 21
73 74 73 73 73 71 71 71 71 70 70 71 74 75 73 72 68 66 66 65 63 62 61 61 59 59 57 54 52 51 50 52 50 48 44 40 36 38 33 29 24 19 22
75 76 77 77 77 77 76 76 75 75 74 73 71 71 71 69 71 70 70 67 66 64 64 65 61 61 59 57 55 54 55 56 54 50 43 41 37 36 33 26 23 19 21
76 77 78 79 81 81 82 82 81 81 80 79 76 75 73 71 70 71 72 71 70 67 65 63 65 63 61 59 59 57 57 59 55 53 45 40 34 34 31 25 24 16 19
79 80 81 82 83 84 84 84 86 86 85 85 83 82 79 76 73 72 71 73 73 71 69 67 65 66 64 62 61 58 59 55 51 49 48 43 36 31 29 29 25 20 20
86 86 87 87 87 88 88 87 88 88 89 89 87 87 87 85 82 79 79 77 76 71 71 70 67 66 66 65 63 63 61 59 55 52 44 35 34 29 27 29 28 23 20
81 87 91 94 96 96 95 94 94 94 93 94 93 92 90 88 88 86 86 85 83 79 74 73 70 71 67 65 64 65 62 60 53 50 43 37 34 31 29 32 29 27 21
66 69 73 78 83 88 92 97 101 100 101 101 101 100 96 93 92 91 90 89 87 86 82 79 76 73 70 68 67 65 63 60 55 52 46 40 36 34 33 37 34 30 28
70 73 76 78 80 82 84 87 91 96 98 103 107 108 107 103 102 99 96 95 93 92 87 83 81 78 75 74 70 68 64 61 58 54 50 40 40 35 35 42 40 39 37
77 79 81 83 85 87 88 89 90 91 91 94 97 99 101 103 104 105 104 102 101 98 94 92 88 84 81 78 74 73 69 66 61 56 53 44 42 36 38 46 45 43 39
82 85 87 89 91 94 94 95 97 98 99 97 94 96 99 99 100 101 102 102 102 101 101 96 94 89 88 83 80 76 72 70 65 61 56 47 44 39 42 50 49 44 41
83 87 90 93 96 98 101 104 106 105 105 105 107 104 99 100 100 99 99 100 101 98 99 101 98 95 94 90 85 81 78 73 70 66 58 55 47 41 43 51 54 48 48
91 93 96 99 102 105 107 109 110 113 116 114 112 110 112 106 102 101 101 102 103 102 98 98 98 100 97 94 88 86 80 79 74 72 62 57 52 48 48 50 57 53 48
97 100 102 104 107 111 116 120 121 121 122 121 122 120 117 115 114 107 102 102 101 99 98 96 96 95 100 101 98 95 88 84 79 72 63 62 53 53 51 51 57 58 55
96 100 104 107 110 114 117 121 124 127 129 130 128 126 126 122 119 117 112 106 104 102 101 98 97 97 96 91 89 87 88 83 78 72 68 61 58 56 55 59 52 58 63
98 103 108 110 117 125 129 132 132 132 133 132 133 134 130 130 127 123 120 116 111 106 103 101 100 96 96 92 89 79 77 80 78 71 67 64 62 62 58 63 58 53 62
99 106 114 124 134 137 136 133 132 129 129 130 130 131 133 131 131 130 126 123 118 114 108 105 101 100 97 95 91 88 77 73 71 69 66 65 65 65 62 62 62 55 55
107 109 121 134 140 141 141 140 138 136 131 127 129 129 132 133 131 127 131 128 126 119 116 111 105 101 100 97 93 87 84 81 75 70 67 66 63 65 65 66 65 62 60
Wind_Direction
241 244 243 239 241 250 251 247 249 249 250 250 252 255 258 256 257 248 243 254 257 256 259 261 263 257 256 260 262 267 275 282 283 285 286 281 278 272 270 266 261 260 249
238 238 241 237 243 242 248 254 251 251 251 249 248 249 251 249 254 253 252 253 258 258 255 263 263 259 253 262 263 272 276 282 284 283 287 287 285 283 271 264 262 259 257
242 241 239 237 236 242 242 241 248 251 251 253 253 251 251 250 250 252 251 251 254 257 257 260 261 259 260 268 265 271 277 278 281 279 285 287 287 287 282 272 267 259 259
241 242 242 239 237 236 241 243 242 245 249 250 252 254 252 250 251 251 249 253 256 258 258 259 261 260 262 261 267 270 273 275 278 280 285 289 290 290 288 280 275 269 257
243 243 244 244 241 240 239 240 241 243 250 250 250 255 259 255 253 251 251 250 253 256 258 256 256 259 262 266 267 271 274 277 279 281 284 290 292 293 293 286 284 277 269
243 243 246 245 245 245 243 242 242 243 243 249 250 253 254 257 255 254 248 250 251 253 254 256 257 258 261 264 268 269 274 277 279 283 286 291 298 298 295 295 295 287 276
244 244 244 246 246 246 246 246 244 244 244 245 249 254 254 256 255 255 253 250 252 252 255 256 257 257 259 263 265 268 272 278 282 283 286 291 297 300 297 298 290 289 274
247 246 246 247 248 249 250 250 250 248 246 247 248 250 254 255 256 256 253 253 255 252 254 255 260 261 261 263 264 267 271 274 280 284 288 293 298 300 299 298 296 275 260
248 247 248 249 250 249 249 251 252 251 251 250 249 251 254 255 256 255 256 254 254 253 254 253 256 259 261 263 263 263 268 273 279 284 290 292 300 303 304 291 273 265 254
247 248 248 249 250 251 251 251 251 251 251 251 251 253 255 255 253 254 257 258 255 255 255 255 256 257 260 264 264 263 266 272 275 281 286 291 296 303 301 277 266 257 247
247 247 248 248 249 251 250 250 252 252 252 251 251 252 254 254 255 253 253 253 254 254 255 255 257 260 258 262 263 262 266 271 273 280 284 290 294 298 303 265 256 257 243
246 247 248 248 247 248 249 250 251 252 251 252 251 251 251 252 254 253 251 249 251 253 254 254 255 258 258 260 261 263 266 269 273 276 283 285 290 292 293 245 238 246 246
245 248 249 250 250 249 248 249 251 251 251 251 251 252 252 252 250 252 252 252 250 249 253 255 258 259 258 260 261 261 264 269 271 274 281 285 284 286 278 243 227 227 221
248 248 249 250 250 250 249 249 250 251 250 250 250 252 252 251 251 252 254 253 253 252 252 254 257 257 259 260 261 261 264 267 268 272 278 280 278 280 259 235 222 221 205
256 253 252 252 251 251 250 251 251 250 251 251 251 252 253 252 251 250 251 253 254 254 253 253 254 254 257 257 259 259 262 265 268 270 275 275 274 273 259 230 218 201 198
252 251 251 253 254 253 253 252 252 251 251 251 251 251 251 251 251 250 249 250 252 252 253 252 251 252 254 254 257 258 260 262 265 266 268 268 267 266 252 223 210 200 198
256 256 255 253 251 251 251 252 252 252 252 251 250 251 250 249 250 250 250 249 249 249 251 250 250 250 251 252 254 254 256 258 261 261 265 265 261 266 245 219 206 204 205
262 261 259 256 256 255 253 252 252 251 251 250 249 248 249 250 250 249 247 247 248 250 248 248 250 248 249 250 250 250 253 254 258 259 263 261 257 258 232 220 209 209 216
264 264 263 263 262 260 257 255 252 250 248 248 249 249 248 247 246 246 248 247 247 245 245 247 247 248 246 246 248 248 248 251 252 255 259 257 249 252 235 220 216 218 223
266 266 265 264 263 262 261 260 257 254 252 250 246 246 248 247 246 244 243 244 244 245 244 242 243 245 245 245 247 246 247 249 250 251 253 253 245 247 242 226 219 219 224
270 270 269 268 267 265 264 263 261 260 255 251 249 248 245 246 246 245 244 243 244 244 243 244 242 241 242 243 242 243 243 244 247 251 251 248 244 238 242 230 225 216 229
272 271 270 268 266 264 263 262 261 260 259 256 251 248 246 244 244 245 243 243 243 242 241 241 242 244 243 243 242 241 243 244 245 245 244 246 241 232 239 241 230 228 219
277 276 274 272 270 266 262 260 257 256 256 255 253 251 247 244 242 241 243 242 242 241 241 238 240 241 244 244 243 241 240 241 241 243 243 239 237 233 238 241 233 232 227
283 281 279 274 271 268 264 261 260 258 257 257 256 254 249 245 242 241 239 241 241 240 240 239 237 237 238 241 241 240 238 238 238 237 239 238 233 232 240 240 233 229 233
285 281 279 275 270 269 269 269 268 267 263 260 256 253 252 250 245 239 239 238 239 240 238 239 237 235 236 237 240 240 236 235 235 233 234 229 228 232 236 235 233 234 232
290 286 282 276 275 275 276 275 274 272 269 263 259 254 251 248 245 243 237 236 236 237 238 236 237 236 235 235 235 237 236 235 233 235 228 227 229 232 230 230 231 234 237